Mayfld Grav Cnty AP, Mayfield, KY

2:26 PM CDT on July 27, 2017 (GMT -0500)
Mayfld Grav Cnty AP, Mayfield

Weather History for KM25 - January, 2014

Change the Weather History Date:

Friday, January 17, 2014

  Actual Average (KPAH) Record (KPAH)
Temperature  
Mean Temperature 27 °F -  
Max Temperature 37 °F 40 °F 68 °F (1952)
Min Temperature 17 °F 25 °F -14 °F (1982)
Degree Days  
Heating Degree Days 38    
Moisture  
Dew Point 16 °F    
Average Humidity 66    
Maximum Humidity 93    
Minimum Humidity 47    
Precipitation  
Precipitation 0.00 in - - ()
Sea Level Pressure  
Sea Level Pressure 30.05 in    
Wind  
Wind Speed 10 mph (WNW)    
Max Wind Speed 20 mph    
Max Gust Speed 26 mph    
Visibility 10 miles    
Events Snow    
Averages and records for this station are not official NWS values.
T = Trace of Precipitation, MM = Missing Value Source: NWS Daily Summary

Daily Weather History Graph

Daily Weather History Graph

Search for Another Location

Airport or City:

Trip Planner

Search our weather history database for the weather conditions in past years. The results will help you decide how hot, cold, wet, or windy it might be!

Date:

Astronomy

Jan. 17, 2014 Rise Set
Actual Time 7:05 AM CST 5:03 PM CST
Civil Twilight 6:37 AM CST 5:32 PM CST
Nautical Twilight 6:05 AM CST 6:03 PM CST
Astronomical Twilight 5:34 AM CST 6:34 PM CST
Moon 6:46 PM CST (1/17) 7:36 AM CST (1/17)
Length of Visible Light 10h 54m
Length of Day
9h 58m
Full, 98% of the Moon is Illuminated
Jan 17
Full
Jan 23
Last Quarter
Jan 30
New
Feb 6
First Quarter
Feb 14
Full

Hourly Weather History & Observations

Time (CST) Temp. Windchill Dew Point Humidity Pressure Visibility Wind Dir Wind Speed Gust Speed Precip Events Conditions
12:15 AM 35.6 °F 30.7 °F 30.2 °F 81% 29.84 in 10.0 mi SW 5.8 mph - N/A   Overcast
12:35 AM 35.6 °F 29.9 °F 30.2 °F 81% 29.84 in 10.0 mi WSW 6.9 mph - N/A   Overcast
12:55 AM 37.4 °F 31.4 °F 28.4 °F 70% 29.84 in 10.0 mi West 8.1 mph - N/A   Overcast
1:15 AM 37.4 °F 32.8 °F 28.4 °F 70% 29.84 in 10.0 mi West 5.8 mph - N/A   Overcast
1:35 AM 35.6 °F 29.2 °F 28.4 °F 75% 29.84 in 10.0 mi West 8.1 mph - N/A   Overcast
1:55 AM 35.6 °F 29.2 °F 28.4 °F 75% 29.85 in 10.0 mi West 8.1 mph - N/A   Mostly Cloudy
2:15 AM 35.6 °F 28.0 °F 28.4 °F 75% 29.85 in 10.0 mi West 10.4 mph - N/A   Overcast
2:35 AM 35.6 °F 28.6 °F 28.4 °F 75% 29.86 in 10.0 mi West 9.2 mph - N/A   Overcast
2:55 AM 35.6 °F 29.2 °F 30.2 °F 81% 29.87 in 10.0 mi West 8.1 mph - N/A   Overcast
3:15 AM 35.6 °F 29.2 °F 28.4 °F 75% 29.87 in 10.0 mi WNW 8.1 mph - N/A   Overcast
3:35 AM 35.6 °F 27.1 °F 26.6 °F 70% 29.88 in 10.0 mi NW 12.7 mph 17.3 mph N/A   Overcast
3:55 AM 33.8 °F 22.8 °F 24.8 °F 70% 29.88 in 10.0 mi NW 18.4 mph - N/A Snow Light Snow
4:15 AM 32.0 °F 20.8 °F 26.6 °F 80% 29.91 in 10.0 mi NNW 17.3 mph 23.0 mph N/A Snow Light Snow
4:35 AM 30.2 °F 20.8 °F 23.0 °F 75% 29.92 in 10.0 mi NNW 11.5 mph - N/A   Overcast
4:55 AM 30.2 °F 17.8 °F 17.6 °F 60% 29.93 in 10.0 mi NW 19.6 mph 24.2 mph N/A   Overcast
5:15 AM 30.2 °F 20.8 °F 15.8 °F 55% 29.94 in 10.0 mi NW 11.5 mph 23.0 mph N/A   Overcast
5:35 AM 30.2 °F 19.3 °F 14.0 °F 51% 29.95 in 10.0 mi WNW 15.0 mph 24.2 mph N/A   Overcast
5:55 AM 28.4 °F 16.6 °F 14.0 °F 55% 29.96 in 10.0 mi NW 16.1 mph 24.2 mph N/A   Overcast
6:15 AM 26.6 °F 13.4 °F 12.2 °F 55% 29.97 in 10.0 mi NW 18.4 mph 24.2 mph N/A   Overcast
6:35 AM 26.6 °F 14.3 °F 12.2 °F 55% 29.99 in 10.0 mi NW 16.1 mph 19.6 mph N/A   Overcast
6:55 AM 24.8 °F 12.4 °F 12.2 °F 59% 29.99 in 10.0 mi NW 15.0 mph - N/A   Scattered Clouds
7:15 AM 24.8 °F 12.9 °F 12.2 °F 59% 30.00 in 10.0 mi NW 13.8 mph - N/A   Clear
7:35 AM 24.8 °F 14.0 °F 12.2 °F 59% 30.01 in 10.0 mi NW 11.5 mph 20.7 mph N/A   Clear
7:55 AM 24.8 °F 14.0 °F 12.2 °F 59% 30.01 in 10.0 mi NW 11.5 mph 18.4 mph N/A   Clear
8:15 AM 23.0 °F 10.6 °F 8.6 °F 54% 30.02 in 10.0 mi NW 13.8 mph 21.9 mph N/A   Scattered Clouds
8:35 AM 23.0 °F 11.1 °F 10.4 °F 59% 30.04 in 10.0 mi NW 12.7 mph 18.4 mph N/A   Overcast
8:55 AM 23.0 °F 10.1 °F 10.4 °F 59% 30.05 in 10.0 mi WNW 15.0 mph 19.6 mph N/A   Overcast
9:15 AM 23.0 °F 11.1 °F 10.4 °F 59% 30.06 in 10.0 mi WNW 12.7 mph 17.3 mph N/A   Overcast
9:35 AM 23.0 °F 11.1 °F 10.4 °F 59% 30.07 in 10.0 mi WNW 12.7 mph 24.2 mph N/A   Overcast
9:55 AM 23.0 °F 9.6 °F 10.4 °F 59% 30.08 in 10.0 mi WNW 16.1 mph 23.0 mph N/A   Overcast
10:15 AM 23.0 °F 9.2 °F 10.4 °F 59% 30.08 in 10.0 mi WNW 17.3 mph 24.2 mph N/A   Overcast
10:35 AM 23.0 °F 11.7 °F 8.6 °F 54% 30.09 in 10.0 mi WNW 11.5 mph 23.0 mph N/A   Overcast
10:55 AM 24.8 °F 11.5 °F 8.6 °F 50% 30.08 in 10.0 mi WNW 17.3 mph 25.3 mph N/A   Mostly Cloudy
11:15 AM 26.6 °F 14.3 °F 8.6 °F 47% 30.08 in 10.0 mi NW 16.1 mph 26.5 mph N/A   Mostly Cloudy
11:35 AM 24.8 °F 11.5 °F 8.6 °F 50% 30.08 in 10.0 mi WNW 17.3 mph 23.0 mph N/A   Mostly Cloudy
11:55 AM 26.6 °F 13.4 °F 8.6 °F 47% 30.07 in 10.0 mi WNW 18.4 mph 25.3 mph N/A   Scattered Clouds
12:15 PM 26.6 °F 13.4 °F 10.4 °F 51% 30.07 in 10.0 mi NW 18.4 mph 21.9 mph N/A   Mostly Cloudy
12:35 PM 26.6 °F 13.4 °F 10.4 °F 51% 30.07 in 10.0 mi West 18.4 mph 26.5 mph N/A   Overcast
12:55 PM 26.6 °F 14.7 °F 8.6 °F 47% 30.07 in 10.0 mi WNW 15.0 mph 21.9 mph N/A   Mostly Cloudy
1:15 PM 26.6 °F 16.8 °F 8.6 °F 47% 30.07 in 10.0 mi WNW 10.4 mph 23.0 mph N/A   Overcast
1:35 PM 26.6 °F 16.2 °F 10.4 °F 51% 30.07 in 10.0 mi WNW 11.5 mph 18.4 mph N/A   Overcast
1:55 PM 26.6 °F 13.8 °F 10.4 °F 51% 30.08 in 10.0 mi West 17.3 mph 20.7 mph N/A   Overcast
2:15 PM 26.6 °F 16.8 °F 12.2 °F 55% 30.09 in 10.0 mi WNW 10.4 mph 19.6 mph N/A   Overcast
2:35 PM 26.6 °F 17.5 °F 12.2 °F 55% 30.09 in 10.0 mi WNW 9.2 mph 18.4 mph N/A   Overcast
2:55 PM 26.6 °F 15.2 °F 10.4 °F 51% 30.10 in 10.0 mi WNW 13.8 mph 21.9 mph N/A   Overcast
3:15 PM 26.6 °F 15.7 °F 12.2 °F 55% 30.10 in 10.0 mi WNW 12.7 mph 18.4 mph N/A   Overcast
3:35 PM 26.6 °F 15.2 °F 12.2 °F 55% 30.11 in 10.0 mi WNW 13.8 mph 18.4 mph N/A   Overcast
3:55 PM 26.6 °F 17.5 °F 14.0 °F 59% 30.12 in 10.0 mi WNW 9.2 mph - N/A   Overcast
4:15 PM 26.6 °F 15.7 °F 14.0 °F 59% 30.12 in 10.0 mi West 12.7 mph 16.1 mph N/A   Overcast
4:35 PM 26.6 °F 16.8 °F 15.8 °F 64% 30.13 in 10.0 mi WNW 10.4 mph - N/A   Overcast
4:55 PM 24.8 °F 16.9 °F 17.6 °F 74% 30.14 in 10.0 mi WNW 6.9 mph - N/A   Overcast
5:15 PM 24.8 °F 16.9 °F 17.6 °F 74% 30.14 in 10.0 mi West 6.9 mph - N/A   Overcast
5:35 PM 24.8 °F 16.1 °F 17.6 °F 74% 30.14 in 10.0 mi West 8.1 mph - N/A   Overcast
5:55 PM 24.8 °F 20.5 °F 17.6 °F 74% 30.15 in 10.0 mi West 3.5 mph - N/A   Overcast
6:15 PM 24.8 °F 16.1 °F 17.6 °F 74% 30.15 in 10.0 mi WNW 8.1 mph - N/A   Overcast
6:35 PM 24.8 °F 17.9 °F 17.6 °F 74% 30.15 in 10.0 mi WNW 5.8 mph - N/A   Overcast
6:55 PM 24.8 °F 16.9 °F 17.6 °F 74% 30.15 in 10.0 mi WNW 6.9 mph - N/A   Overcast
7:15 PM 24.8 °F 16.9 °F 15.8 °F 69% 30.15 in 10.0 mi WNW 6.9 mph - N/A   Overcast
7:35 PM 24.8 °F 20.5 °F 15.8 °F 69% 30.15 in 10.0 mi WNW 3.5 mph - N/A   Overcast
7:55 PM 24.8 °F 17.9 °F 17.6 °F 74% 30.15 in 10.0 mi NW 5.8 mph - N/A   Overcast
8:15 PM 24.8 °F 19.1 °F 17.6 °F 74% 30.15 in 10.0 mi NW 4.6 mph - N/A   Overcast
8:35 PM 23.0 °F 18.4 °F 17.6 °F 80% 30.15 in 10.0 mi NW 3.5 mph - N/A   Overcast
8:55 PM 23.0 °F - 17.6 °F 80% 30.16 in 10.0 mi Calm Calm - N/A   Scattered Clouds
9:15 PM 21.2 °F - 17.6 °F 86% 30.16 in 10.0 mi Calm Calm - N/A   Scattered Clouds
9:35 PM 21.2 °F - 15.8 °F 80% 30.16 in 10.0 mi Calm Calm - N/A   Clear
9:55 PM 21.2 °F - 15.8 °F 80% 30.16 in 10.0 mi Calm Calm - N/A   Clear
10:15 PM 19.4 °F - 15.8 °F 86% 30.16 in 10.0 mi Calm Calm - N/A   Clear
10:35 PM 19.4 °F - 15.8 °F 86% 30.16 in 10.0 mi Calm Calm - N/A   Clear
10:55 PM 19.4 °F - 15.8 °F 86% 30.15 in 10.0 mi Calm Calm - N/A   Clear
11:15 PM 17.6 °F - 15.8 °F 93% 30.14 in 10.0 mi Calm Calm - N/A   Clear
11:35 PM 19.4 °F - 17.6 °F 93% 30.15 in 10.0 mi Calm Calm - N/A   Clear
11:55 PM 17.6 °F - 15.8 °F 93% 30.15 in 10.0 mi Calm Calm - N/A   Clear